リニア彗星

C/2017 B3 ( LINEAR )

English version
Home page
Updated on January 6, 2021

---------------------------------------------------------------------

・ プロフィール

発見日 2017年1月26日
発見光度 19.2等
発見者 LINEAR survey (Space Surveillance Telescope, Atom Peak, White Sands Missile Range, NM, USA)

・ 写真集

・ 軌道要素

Epoch 2019 Feb. 6.0 TT = JDT 2458520.5
T 2019 Feb. 2.50444 TT                                  Rudenko
q   3.9211539            (2000.0)            P               Q
z  -0.0005371      Peri.  284.74975     +0.27591561     +0.96068812
 +/-0.0000002      Node     2.17723     -0.19811241     +0.08820118
e   1.0021062      Incl.   54.17877     -0.94054349     +0.26324683
From 1178 observations 2016 Mar. 4-2020 Oct. 17, mean residual 0".5.

・ 星図

・ 光度変化

        m1 = 5.0 + 5 logΔ + 10.0 log r(t - 200)

---------------------------------------------------------------------

軌道要素はM.P.E.C. 2020-U96に掲載されたものです。
星図はステラナビゲータ Ver.10 (アストロアーツ) で作成したものです。
光度グラフはComet for Windowsで作成したものです。

---------------------------------------------------------------------

Copyright(C) Seiichi Yoshida (comet@aerith.net). All rights reserved.